Location: The C. Gantt Observatory
(33.6981°N, 81.6836°W)
Time: 06:58:58
(UTC-04:00)

Daily predictions for brighter satellites

Satellite Brightness Start Highest point End
(mag) Time Altitude Azimuth Time Altitude Azimuth Time Altitude Azimuth
ERS-2 3.3 21:07:05 10° SE 21:10:13 27° ENE 21:13:22 10° NNE
Spot 2 Rocket 4.3 21:06:19 10° SE 21:10:51 35° ENE 21:15:25 10° N
Cosmos 1238 Rocket 3.7 21:10:02 10° SE 21:12:09 18° E 21:14:20 10° NE
Cosmos 1420 Rocket 4.0 21:11:42 10° N 21:16:52 67° ENE 21:22:01 10° SSE
Cosmos 1452 Rocket 3.5 21:13:09 10° NNW 21:18:28 81° ENE 21:23:43 10° SSE
Resurs 1-3 3.7 21:15:12 10° SSE 21:19:31 62° ENE 21:23:51 10° N
Cosmos 1812 Rocket 3.6 21:15:30 10° N 21:19:53 88° W 21:24:16 10° S
Lacrosse 5 3.5 21:15:50 10° WSW 21:20:34 40° NW 21:25:20 10° NNE
Cosmos 1939 Rocket 3.0 21:16:56 10° S 21:21:01 84° WSW 21:25:04 10° NNW
ATLAS 3B R/B 4.3 21:16:44 10° N 21:21:15 19° NE 21:25:44 10° E
ARGOS 4.5 21:17:48 10° ESE 21:22:04 24° ENE 21:26:20 10° NNE
Cosmos 2278 Rocket 3.7 21:21:33 10° SE 21:24:56 16° E 21:28:18 10° ENE
Cosmos 1943 4.1 21:19:31 10° NNW 21:24:56 49° WSW 21:30:19 10° S
Cosmos 1953 Rocket 3.9 21:20:53 10° SSE 21:25:00 45° E 21:29:11 10° NNE
Cosmos 1758 Rocket 3.6 21:25:33 10° S 21:29:56 67° E 21:34:20 10° NNE
Cosmos 1932 4.4 21:24:25 10° NNW 21:30:39 83° ENE 21:36:44 11° SSE
Cosmos 1315 Rocket 2.9 21:33:23 10° S 21:37:26 87° WNW 21:41:33 10° N
Cosmos 1844 Rocket 2.7 21:32:59 10° SSW 21:38:39 82° ESE 21:44:19 10° NNE
YAOGAN 6 4.3 21:37:10 10° SSW 21:40:20 31° W 21:43:30 10° NNW
Cosmos 494 Rocket 4.1 21:35:48 10° S 21:40:52 53° ESE 21:45:59 10° NNE
Aurora 2 Rocket 4.0 21:36:05 10° WSW 21:41:04 37° S 21:47:01 13° ESE
NOAA 11 4.2 21:39:16 10° SSE 21:44:41 89° W 21:50:08 10° NNW
Cosmos 921 Rocket 4.0 21:42:20 10° N 21:46:24 32° ENE 21:48:59 18° ESE
Cosmos 1461 3.8 21:43:53 10° S 21:47:57 33° ESE 21:52:09 10° NE
Cosmos 1844 3.7 21:42:36 10° SSW 21:48:14 75° ESE 21:53:59 10° NNE
COSMOS 2406 4.3 21:44:55 10° N 21:49:56 30° ENE 21:53:24 17° ESE
Resurs 01 Rocket 2.1 21:45:41 10° S 21:50:02 60° W 21:54:25 10° NNW
Cosmos 1269 Rocket 4.5 21:45:22 10° SSW 21:50:38 66° WNW 21:55:55 10° N
H-2A R/B 2.9 21:47:31 17° SE 21:51:01 36° ENE 21:55:54 10° N
ATLAS 2AS CENTAUR R/B 3.4 21:43:34 10° SW 21:51:14 70° WNW 21:59:21 10° NNE
SAR-Lupe-3 4.4 21:48:28 10° NNE 21:52:03 82° ESE 21:55:37 10° S
Cosmos 1825 Rocket 4.5 21:49:27 10° SSW 21:53:47 51° W 21:58:08 10° N
ATLAS 5 CENTAUR R/B 2.9 21:53:56 20° ESE 21:54:12 20° ESE 21:57:30 10° ENE
Iridium 4 Rocket 3.9 21:53:13 10° S 21:58:51 73° W 22:04:06 10° N
Cosmos 1437 2.6 21:57:28 10° N 22:00:38 72° E 22:02:07 28° SSE
OAO 3 Rocket 3.3 21:55:49 10° W 22:00:47 82° N 22:04:34 17° E
SEDSat Delta rocket 3.6 21:57:19 10° WSW 22:02:40 47° SSE 22:05:50 20° E
Cosmos 220 Rocket 4.0 22:03:07 15° S 22:06:24 52° ESE 22:10:30 10° NNE
Terra 4.1 22:07:36 10° ENE 22:08:11 10° ENE 22:08:46 10° ENE
ERS-1 Rocket 3.7 22:06:44 23° ESE 22:09:05 36° ENE 22:13:41 10° N
Cosmos 1346 Rocket 2.7 22:05:57 10° N 22:10:00 82° E 22:12:14 26° SSE
Meteor 1-24 Rocket 4.2 22:04:21 10° SSW 22:10:20 68° W 22:16:20 10° N
OE (NEXTSAT) 4.3 22:12:06 10° WNW 22:15:39 84° SW 22:16:40 44° SE
USA 215 3.2 22:14:20 24° SE 22:18:37 86° NE 22:25:13 10° NW
Cosmos 1244 Rocket 4.5 22:13:22 10° N 22:19:46 85° E 22:24:16 20° S
Iridium 81 3.8 22:20:50 63° NE 22:20:50 63° NE 22:23:19 10° N
Cosmos 1745 Rocket 4.5 22:16:12 10° N 22:22:09 43° E 22:24:48 29° SE
Cosmos 2084 3.6 22:19:32 10° NW 22:23:17 56° WSW 22:24:40 34° S
Cosmos 1340 3.2 22:20:47 10° N 22:24:23 40° E 22:24:49 39° E
Cosmos 1908 3.1 22:20:40 10° N 22:24:33 79° E 22:25:48 41° SSE
MetOp-B 4.1 22:22:42 28° SSE 22:25:39 78° ENE 22:31:01 10° N
NOSS 2-2 (E) 3.4 22:26:03 45° SE 22:26:13 45° ESE 22:30:05 10° NE
PSLV R/B 2.8 22:23:10 10° WSW 22:26:16 77° SSE 22:26:16 77° SSE
Cosmos 2251 Rocket 3.4 22:22:00 15° S 22:26:30 72° ESE 22:31:48 10° NNE
DMSP B5D2-2 4.1 22:21:32 10° NNE 22:26:41 56° E 22:29:09 29° SSE
NOSS 3-4 (A) 3.3 22:22:49 10° SSW 22:28:55 73° ESE 22:35:12 10° NE
NOSS 3-4 (C) 3.3 22:22:55 10° SSW 22:29:00 72° ESE 22:35:17 10° NE
Cosmos-2242 3.6 22:27:39 10° NNW 22:31:57 55° W 22:34:29 23° SSW
H-2A R/B (2) 4.1 22:30:00 24° SSE 22:32:42 29° SE 22:54:45 10° ENE
SL-08 RB Rocket 3.7 22:33:08 34° S 22:35:10 83° WSW 22:39:51 10° NNW
Cosmos 1674 3.8 22:32:33 14° SSW 22:35:33 41° W 22:39:13 10° N
Meteor 2-10 4.2 22:31:40 10° N 22:37:10 69° E 22:39:22 37° SSE
Helios 1A 3.6 22:37:59 36° E 22:38:24 37° ENE 22:42:17 10° N
Helios 1B rocket 3.4 22:35:48 10° NNE 22:38:53 32° ENE 22:38:53 32° ENE
S3M 4.1 22:40:34 19° S 22:45:17 83° W 22:51:43 10° N
Cosmos 1726 2.1 22:41:37 10° N 22:45:23 79° W 22:45:50 65° SSW
Cosmos 1300 3.5 22:43:10 10° N 22:46:20 37° ENE 22:46:20 37° ENE
CSL-04 DEB 4.1 22:48:07 71° SSE 22:48:29 84° ENE 22:52:26 10° NNW
APEX 3.3 22:49:17 10° NNW 22:52:30 59° NE 22:52:30 59° NE
CZ-2C R/B 4.2 22:54:27 30° E 22:55:36 33° ENE 23:00:40 10° N
SPOT 5 3.0 22:54:57 53° SE 22:56:05 71° ENE 23:01:20 10° N
Cosmos 1842 Rocket 3.4 22:52:00 10° N 22:56:22 88° W 22:56:56 68° S
NOSS 2-2 (D) 3.1 22:57:20 88° NNE 22:57:20 88° NNE 23:01:22 10° NNE
RESURS DK-1 3.8 23:03:44 27° NE 23:03:44 27° NE 23:05:54 10° NE
ARGOS 4.3 22:58:58 20° SSW 23:02:03 37° W 23:07:02 10° NNW
Cosmos 2278 Rocket 2.8 23:02:54 10° SW 23:08:27 55° WNW 23:14:01 10° N
ATLAS 3B R/B 2.5 23:06:01 10° NNW 23:12:37 79° WSW 23:14:24 51° SSE
Cosmos 1375 Rocket 4.5 23:09:17 10° NNW 23:15:53 81° WSW 23:17:30 54° SSE
USA 238 DEB 4.2 23:12:35 10° NW 23:19:32 53° WSW 23:21:54 39° SSW
USA 238 4.2 23:12:41 10° NW 23:19:38 54° WSW 23:22:00 39° SSW
Spot 1 4.5 23:21:12 56° NE 23:21:12 56° NE 23:25:17 10° N
Cosmos 883 Rocket 4.5 23:19:20 44° SSW 23:21:27 78° W 23:27:42 10° N
Cosmos 2221 2.6 23:17:19 10° N 23:21:10 70° N 23:21:10 70° N
NOSS 2-2 (C) 4.4 23:22:43 37° W 23:23:31 43° NW 23:27:25 10° NNE
Landsat 7 3.8 23:25:42 71° WSW 23:25:49 72° WSW 23:30:34 10° NNW
Okean 3 Rocket 3.9 23:27:16 59° NNE 23:27:16 59° NNE 23:30:52 10° N
SPOT 1/Viking Rocket 3.9 23:29:41 50° SW 23:30:20 54° W 23:35:22 10° NNW
H-2A R/B 3.9 23:28:09 18° SW 23:30:26 23° W 23:34:41 10° NW
NOSS 3-2 (A) 4.1 23:22:55 10° NW 23:30:43 74° WSW 23:33:11 49° S
Cosmos 2315 Rocket 3.9 23:29:38 57° S 23:31:05 87° W 23:37:28 10° N
Aureole 3 Rocket 4.1 23:31:29 50° S 23:33:40 87° E 23:39:33 10° N
COSMOS 2406 4.4 23:29:06 10° NW 23:34:08 32° WSW 23:35:29 29° SW
Aurora 2 Rocket 4.4 23:28:24 10° WSW 23:33:34 39° SSW 23:33:34 39° SSW
Cosmos 2369 Rocket 4.5 23:39:36 11° ENE 23:39:36 11° ENE 23:40:02 10° ENE
ATLAS 5 CENTAUR R/B 3.3 23:35:18 14° WSW 23:38:30 33° NW 23:42:49 10° NNE
IGS 5A 4.2 23:40:24 49° NW 23:40:24 49° NW 23:43:41 10° NNW
Cosmos 1626 3.8 23:44:59 31° NW 23:44:59 31° NW 23:47:31 10° N
Terra 2.1 23:45:46 64° WNW 23:45:46 64° WNW 23:50:02 10° NNW
Cosmos 2297 4.0 23:53:01 54° WSW 23:53:55 62° WNW 23:59:35 10° NNE
